Regional Weather Roundup
Issued by NWS Bismarck, ND

Home | Current Version | Previous Version | Text Only | Print | Product List | Glossary On
Versions: 1 2 3 4 5 6 7 8 9 10 11 12 13 14 15 16 17 18 19 20 21 22 23 24 25 26 27 28 29 30 31 32 33 34 35 36 37 38 39 40 41 42 43 44 45 46 47 48 49 50
197
ASUS43 KBIS 191710
RWRBIS

NWR BROADCAST TEXT
NATIONAL WEATHER SERVICE BISMARCK ND
1100 AM CST SUN FEB 19 2017

NOTE: "FAIR" INDICATES FEW OR NO CLOUDS BELOW 12,000 FEET WITH NO
SIGNIFICANT WEATHER AND/OR OBSTRUCTIONS TO VISIBILITY.


CITY           SKY/WX    TMP DP  RH WIND       PRES   REMARKS
WILLISTON      CLOUDY    34  32  92 E13       29.52F FOG
MINOT          CLOUDY    36  33  89 E12       29.58F FOG
MINOT AFB      CLOUDY    34  32  93 E12       29.57F
BISMARCK       FAIR      39  34  82 E10       29.57F
DICKINSON      FAIR      37  35  92 E7        29.47F
GARRISON         N/A     38  33  82 E10       29.54
HETTINGER ARPT FAIR      40  33  76 SE8       29.50F
JAMESTOWN      FAIR      39  35  86 SE16      29.64F
CARRINGTON     FAIR      37  34  87 SE18      29.63F
HAZEN            N/A    N/A N/A N/A E6        29.55F
MANDAN         FAIR      39  36  87 SE10      29.56F
RUGBY            N/A     34  34 100 E16G23    29.62F
STANLEY        FOG       32  32 100 E14       29.56F VSB<1/4
TIOGA          FOG       32  32 100 E18G26    29.53F VSB 1/4
WATFORD CITY   CLOUDY    32  32 100 SE9       29.52S
$$

CITY           SKY/WX    TMP DP  RH WIND       PRES   REMARKS
GRAND FORKS    CLOUDY    39  32  76 SE13      29.74F
GRAND FORKS AF FAIR      38  35  87 S10       29.74F
DEVILS LAKE    FAIR      36  33  89 E15G23    29.66F
FARGO          FAIR      47  39  74 SE17G23   29.72F
CAVALIER       FAIR      36  32  87 E5        29.78F
GRAFTON        FAIR      36  34  93 E8        29.77F
GWINNER        FAIR      39  39 100 E13       29.69F
ROLLA          CLOUDY    32  32 100 E15       29.68F
$$

CITY           SKY/WX    TMP DP  RH WIND       PRES   REMARKS
ABERDEEN       FAIR      49  39  68 S16G23    29.66F
MOBRIDGE       FAIR      43  34  70 SE16      29.53F
BUFFALO          N/A     54  37  52 S10       29.42F
RAPID CITY     FAIR      55  34  45 SE5       29.53F
GLASGOW        FOG       32  30  92 SE13G21   29.46S VSB 1
SIDNEY         CLOUDY    35  34  96 NE6       29.50F FOG
WOLF POINT     FOG       33  32  96 E10       29.51R VSB 1/2
GLENDIVE       FAIR      34  32  92 NE6       29.47F
MILES CITY     FAIR      36  31  82 NE6       29.44F
BAKER          FAIR      39  34  82 E7        29.47S
$$

CITY           SKY/WX    TMP DP  RH WIND       PRES   REMARKS
BILLINGS       PTSUNNY   45  33  63 W10       29.44F
GREAT FALLS    FAIR      50  30  46 SW22      29.42R
REGINA         CLOUDY    34  28  80 E21G30    29.57F
ESTEVAN        CLOUDY    34  30  86 E21G29    29.58F
$$





USA.gov is the U.S. government's official web portal to all federal, state and local government web resources and services.